RYR22D EGSS-LHBP

Flight info

Callsign RYR22D
Flight time 2h 17m
Altitude 35000
Route CLN P44 RATLO M197 REDFA DCT TACHA DCT NOMKA DCT OMELO DCT PEPIK DCT NIT/N0363F230 M748 ARFOX
Aircraft B738/M-SDE2E3FGHIRWXY/LB1

Departure

Time 2026-05-07 12:39
Airport London Stansted Airport (EGSS)

Arrival

Time 2026-05-07 14:56
Airport Budapest Liszt Ferenc International Airport (LHBP)
Time Latitude Longitude Altitude Speed Heading
2026-05-07 12:05 51.89128 0.25522 348 ft 0 kts 55°
2026-05-07 12:25 51.89127 0.25521 348 ft 0 kts 55°
2026-05-07 12:25 51.89127 0.25520 348 ft 0 kts 55°
2026-05-07 12:26 51.89127 0.25519 348 ft 0 kts 55°
2026-05-07 12:27 51.89117 0.25498 357 ft 2 kts 55°
2026-05-07 12:27 51.89108 0.25476 358 ft 2 kts 55°
2026-05-07 12:28 51.89099 0.25454 358 ft 2 kts 55°
2026-05-07 12:28 51.89094 0.25444 358 ft 0 kts 55°
2026-05-07 12:32 51.89098 0.25446 358 ft 1 kts 18°
2026-05-07 12:32 51.89117 0.25429 354 ft 7 kts 323°
2026-05-07 12:33 51.89227 0.25188 351 ft 18 kts 304°
2026-05-07 12:33 51.89199 0.25012 353 ft 18 kts 223°
2026-05-07 12:33 51.89105 0.24873 352 ft 22 kts 221°
2026-05-07 12:34 51.88983 0.24690 348 ft 26 kts 223°
2026-05-07 12:34 51.88832 0.24463 355 ft 32 kts 223°
2026-05-07 12:34 51.88683 0.24240 351 ft 28 kts 223°
2026-05-07 12:34 51.88544 0.24030 357 ft 27 kts 221°
2026-05-07 12:35 51.88412 0.23832 348 ft 25 kts 223°
2026-05-07 12:35 51.88288 0.23647 351 ft 23 kts 223°
2026-05-07 12:35 51.88167 0.23466 354 ft 26 kts 223°
2026-05-07 12:35 51.88021 0.23250 354 ft 31 kts 222°
2026-05-07 12:36 51.87863 0.23014 350 ft 30 kts 223°
2026-05-07 12:36 51.87713 0.22785 351 ft 29 kts 223°
2026-05-07 12:36 51.87571 0.22572 347 ft 27 kts 223°
2026-05-07 12:36 51.87437 0.22371 340 ft 22 kts 223°
2026-05-07 12:37 51.87409 0.22203 337 ft 14 kts 295°
2026-05-07 12:37 51.87469 0.22086 333 ft 14 kts 312°
2026-05-07 12:37 51.87543 0.22011 334 ft 5 kts 10°
2026-05-07 12:37 51.87570 0.22055 336 ft 6 kts 56°
2026-05-07 12:38 51.87596 0.22114 334 ft 9 kts 53°
2026-05-07 12:38 51.87672 0.22242 337 ft 36 kts 41°
2026-05-07 12:38 51.88058 0.22833 338 ft 112 kts 42°
2026-05-07 12:38 51.88784 0.23923 347 ft 169 kts 41°
2026-05-07 12:39 51.89686 0.25237 1055 ft 169 kts 45°
2026-05-07 12:39 51.90552 0.26560 1874 ft 178 kts 46°
2026-05-07 12:39 51.91325 0.28183 2421 ft 195 kts 64°
2026-05-07 12:39 51.91718 0.30381 2815 ft 211 kts 88°
2026-05-07 12:40 51.91501 0.32827 3089 ft 232 kts 113°
2026-05-07 12:40 51.90714 0.35179 3494 ft 249 kts 120°
2026-05-07 12:40 51.89883 0.37733 4086 ft 257 kts 117°
2026-05-07 12:40 51.89086 0.40394 4014 ft 270 kts 117°
2026-05-07 12:41 51.88235 0.43129 3702 ft 273 kts 118°
2026-05-07 12:41 51.87395 0.45853 3537 ft 265 kts 117°
2026-05-07 12:41 51.86638 0.48493 3660 ft 248 kts 115°
2026-05-07 12:41 51.86006 0.51041 3657 ft 246 kts 103°
2026-05-07 12:42 51.85843 0.53826 3763 ft 254 kts 93°
2026-05-07 12:42 51.85825 0.56725 4404 ft 264 kts 92°
2026-05-07 12:42 51.85821 0.59758 5391 ft 266 kts 92°
2026-05-07 12:42 51.85808 0.62719 5870 ft 266 kts 92°
2026-05-07 12:43 51.85783 0.65758 6075 ft 270 kts 92°
2026-05-07 12:43 51.85747 0.68803 6086 ft 271 kts 93°
2026-05-07 12:43 51.85703 0.71850 6077 ft 271 kts 93°
2026-05-07 12:43 51.85655 0.74875 6075 ft 270 kts 93°
2026-05-07 12:44 51.85602 0.77931 6086 ft 270 kts 93°
2026-05-07 12:44 51.85547 0.80936 6070 ft 269 kts 93°
2026-05-07 12:44 51.85490 0.83958 6084 ft 267 kts 93°
2026-05-07 12:44 51.85431 0.86967 6078 ft 267 kts 93°
2026-05-07 12:45 51.85371 0.90009 6089 ft 272 kts 93°
2026-05-07 12:45 51.85308 0.93076 6098 ft 274 kts 93°
2026-05-07 12:45 51.85246 0.96136 6086 ft 272 kts 93°
2026-05-07 12:45 51.85183 0.99192 6085 ft 269 kts 93°
2026-05-07 12:46 51.85119 1.02235 6075 ft 268 kts 93°
2026-05-07 12:46 51.85056 1.05233 6083 ft 268 kts 93°
2026-05-07 12:46 51.84990 1.08276 6090 ft 272 kts 93°
2026-05-07 12:46 51.84922 1.11358 6096 ft 274 kts 93°
2026-05-07 12:47 51.84904 1.14424 6080 ft 274 kts 84°
2026-05-07 12:47 51.85487 1.17340 6229 ft 277 kts 67°
2026-05-07 12:47 51.86286 1.20253 6906 ft 283 kts 67°
2026-05-07 12:47 51.87076 1.23128 7937 ft 279 kts 66°
2026-05-07 12:48 51.87860 1.25994 8821 ft 282 kts 66°
2026-05-07 12:48 51.88664 1.28951 9673 ft 286 kts 66°
2026-05-07 12:48 51.89460 1.31891 10441 ft 291 kts 66°
2026-05-07 12:48 51.90302 1.35015 10689 ft 316 kts 66°
2026-05-07 12:49 51.91208 1.38389 11028 ft 334 kts 66°
2026-05-07 12:49 51.92148 1.41895 11654 ft 342 kts 66°
2026-05-07 12:49 51.93093 1.45432 12409 ft 346 kts 66°
2026-05-07 12:49 51.94050 1.49016 13171 ft 350 kts 66°
2026-05-07 12:50 51.95030 1.52695 13922 ft 354 kts 66°
2026-05-07 12:50 51.95999 1.56338 14561 ft 359 kts 66°
2026-05-07 12:50 51.96995 1.60085 15236 ft 363 kts 66°
2026-05-07 12:50 51.97662 1.62599 15640 ft 367 kts 66°
2026-05-07 12:51 51.98682 1.66453 16394 ft 368 kts 67°
2026-05-07 12:51 51.99568 1.70340 17066 ft 371 kts 74°
2026-05-07 12:51 52.00243 1.74427 17690 ft 377 kts 76°
2026-05-07 12:51 52.00867 1.78597 18323 ft 381 kts 77°
2026-05-07 12:52 52.01479 1.82770 18901 ft 384 kts 77°
2026-05-07 12:52 52.02110 1.87029 19507 ft 387 kts 77°
2026-05-07 12:52 52.02745 1.91263 20074 ft 390 kts 76°
2026-05-07 12:52 52.03401 1.95583 20642 ft 393 kts 76°
2026-05-07 12:53 52.04059 1.99888 21201 ft 396 kts 76°
2026-05-07 12:53 52.04725 2.04245 21749 ft 400 kts 76°
2026-05-07 12:53 52.05403 2.08674 22296 ft 403 kts 76°
2026-05-07 12:53 52.06077 2.13089 22811 ft 406 kts 76°
2026-05-07 12:54 52.06764 2.17598 23339 ft 410 kts 77°
2026-05-07 12:54 52.07449 2.22114 23812 ft 413 kts 77°
2026-05-07 12:54 52.08134 2.26639 24245 ft 415 kts 77°
2026-05-07 12:54 52.08825 2.31220 24717 ft 417 kts 77°
2026-05-07 12:55 52.09519 2.35827 25156 ft 419 kts 77°
2026-05-07 12:55 52.10205 2.40394 25586 ft 421 kts 77°
2026-05-07 12:55 52.10894 2.45004 26002 ft 423 kts 77°
2026-05-07 12:55 52.11606 2.49687 26427 ft 425 kts 76°
2026-05-07 12:56 52.12430 2.54346 26857 ft 427 kts 73°
2026-05-07 12:56 52.13311 2.58928 27291 ft 428 kts 73°
2026-05-07 12:56 52.14215 2.63526 27689 ft 429 kts 73°
2026-05-07 12:56 52.15131 2.68202 28092 ft 431 kts 73°
2026-05-07 12:57 52.16027 2.72832 28466 ft 433 kts 73°
2026-05-07 12:57 52.16928 2.77550 28857 ft 434 kts 73°
2026-05-07 12:57 52.17817 2.82246 29230 ft 435 kts 73°
2026-05-07 12:57 52.18707 2.86973 29607 ft 437 kts 73°
2026-05-07 12:58 52.19600 2.91740 30021 ft 437 kts 73°
2026-05-07 12:58 52.20480 2.96448 30423 ft 436 kts 73°
2026-05-07 12:58 52.21360 3.01165 30793 ft 435 kts 73°
2026-05-07 12:58 52.22238 3.05883 31151 ft 434 kts 73°
2026-05-07 12:59 52.23111 3.10579 31479 ft 434 kts 73°
2026-05-07 12:59 52.23993 3.15338 31809 ft 435 kts 73°
2026-05-07 12:59 52.24835 3.20083 32144 ft 434 kts 78°
2026-05-07 12:59 52.25280 3.24896 32462 ft 434 kts 86°
2026-05-07 13:00 52.25259 3.29826 32755 ft 433 kts 96°
2026-05-07 13:00 52.24892 3.34678 33063 ft 433 kts 98°
2026-05-07 13:00 52.24474 3.39581 33372 ft 434 kts 98°
2026-05-07 13:00 52.24047 3.44464 33665 ft 434 kts 98°
2026-05-07 13:01 52.23622 3.49338 33964 ft 434 kts 98°
2026-05-07 13:01 52.23202 3.54254 34239 ft 434 kts 98°
2026-05-07 13:01 52.22793 3.59102 34443 ft 435 kts 98°
2026-05-07 13:01 52.22380 3.64042 34633 ft 437 kts 98°
2026-05-07 13:02 52.21977 3.68893 34827 ft 438 kts 98°
2026-05-07 13:02 52.21566 3.73830 35037 ft 437 kts 98°
2026-05-07 13:02 52.20742 3.83697 35093 ft 439 kts 98°
2026-05-07 13:03 52.19910 3.93538 35100 ft 442 kts 98°
2026-05-07 13:03 52.19063 4.03467 35089 ft 444 kts 99°
2026-05-07 13:04 52.18200 4.13456 35085 ft 445 kts 99°
2026-05-07 13:04 52.17328 4.23464 35086 ft 445 kts 99°
2026-05-07 13:05 52.16454 4.33393 35077 ft 445 kts 99°
2026-05-07 13:05 52.15562 4.43418 35075 ft 444 kts 99°
2026-05-07 13:06 52.14674 4.53313 35075 ft 443 kts 99°
2026-05-07 13:06 52.13774 4.63232 35075 ft 442 kts 99°
2026-05-07 13:07 52.12868 4.73125 35072 ft 441 kts 99°
2026-05-07 13:07 52.11952 4.83034 35069 ft 441 kts 99°
2026-05-07 13:08 52.11034 4.92877 35071 ft 440 kts 99°
2026-05-07 13:08 52.10111 5.02678 35070 ft 439 kts 99°
2026-05-07 13:09 52.09175 5.12516 35067 ft 440 kts 99°
2026-05-07 13:09 52.08229 5.22385 35064 ft 440 kts 99°
2026-05-07 13:10 52.07282 5.32161 35060 ft 440 kts 100°
2026-05-07 13:10 52.06318 5.42038 35055 ft 441 kts 100°
2026-05-07 13:11 52.05348 5.51876 35055 ft 442 kts 100°
2026-05-07 13:11 52.04366 5.61755 35050 ft 443 kts 100°
2026-05-07 13:12 52.03374 5.71636 35048 ft 444 kts 100°
2026-05-07 13:12 52.02376 5.81506 35050 ft 444 kts 100°
2026-05-07 13:13 52.01363 5.91426 35047 ft 445 kts 100°
2026-05-07 13:13 52.00341 6.01351 35053 ft 445 kts 100°
2026-05-07 13:14 51.99315 6.11231 35050 ft 445 kts 100°
2026-05-07 13:14 51.98279 6.21128 35055 ft 445 kts 100°
2026-05-07 13:15 51.97229 6.31070 35050 ft 445 kts 100°
2026-05-07 13:15 51.96177 6.40949 35044 ft 444 kts 100°
2026-05-07 13:16 51.95120 6.50789 35044 ft 444 kts 101°
2026-05-07 13:16 51.94049 6.60678 35047 ft 444 kts 101°
2026-05-07 13:17 51.92979 6.70479 35046 ft 443 kts 101°
2026-05-07 13:17 51.91902 6.80270 35045 ft 443 kts 101°
2026-05-07 13:18 51.90812 6.90091 35036 ft 442 kts 101°
2026-05-07 13:18 51.89718 6.99871 35039 ft 442 kts 101°
2026-05-07 13:19 51.88609 7.09718 35044 ft 442 kts 101°
2026-05-07 13:19 51.87499 7.19489 35046 ft 441 kts 101°
2026-05-07 13:20 51.86385 7.29214 35052 ft 441 kts 101°
2026-05-07 13:20 51.85257 7.38992 35057 ft 441 kts 101°
2026-05-07 13:21 51.84123 7.48746 35055 ft 441 kts 101°
2026-05-07 13:21 51.82982 7.58489 35060 ft 441 kts 101°
2026-05-07 13:22 51.81834 7.68219 35065 ft 441 kts 101°
2026-05-07 13:22 51.80673 7.77978 35057 ft 441 kts 101°
2026-05-07 13:23 51.79511 7.87685 35057 ft 441 kts 101°
2026-05-07 13:23 51.78339 7.97391 35068 ft 441 kts 101°
2026-05-07 13:24 51.77149 8.07182 35060 ft 441 kts 101°
2026-05-07 13:24 51.75963 8.16865 35065 ft 442 kts 101°
2026-05-07 13:25 51.74766 8.26571 35048 ft 442 kts 101°
2026-05-07 13:25 51.73559 8.36284 35055 ft 442 kts 101°
2026-05-07 13:26 51.72346 8.45984 35051 ft 441 kts 101°
2026-05-07 13:26 51.71120 8.55709 35051 ft 441 kts 101°
2026-05-07 13:27 51.69888 8.65420 35048 ft 442 kts 101°
2026-05-07 13:27 51.68859 8.73478 35049 ft 441 kts 102°
2026-05-07 13:28 51.67607 8.83216 35049 ft 441 kts 102°
2026-05-07 13:28 51.66361 8.92841 35051 ft 441 kts 102°
2026-05-07 13:29 51.65096 9.02550 35050 ft 441 kts 102°
2026-05-07 13:29 51.63827 9.12215 35048 ft 441 kts 102°
2026-05-07 13:30 51.62554 9.21853 35045 ft 441 kts 102°
2026-05-07 13:30 51.61265 9.31544 35052 ft 440 kts 102°
2026-05-07 13:31 51.59981 9.41134 35049 ft 440 kts 102°
2026-05-07 13:31 51.58685 9.50748 35051 ft 438 kts 102°
2026-05-07 13:32 51.57388 9.60309 35061 ft 441 kts 103°
2026-05-07 13:32 51.56069 9.69961 35050 ft 444 kts 103°
2026-05-07 13:33 51.54790 9.79265 35044 ft 445 kts 103°
2026-05-07 13:33 51.53441 9.89021 35012 ft 446 kts 103°
2026-05-07 13:34 51.51408 10.03597 35061 ft 448 kts 103°
2026-05-07 13:35 51.50032 10.13379 35046 ft 453 kts 103°
2026-05-07 13:35 51.48627 10.23308 35041 ft 455 kts 103°
2026-05-07 13:36 51.47223 10.33165 35032 ft 456 kts 103°
2026-05-07 13:36 51.45804 10.43076 35031 ft 456 kts 103°
2026-05-07 13:37 51.44363 10.52994 35029 ft 455 kts 104°
2026-05-07 13:37 51.42823 10.62790 35020 ft 453 kts 105°
2026-05-07 13:38 51.41252 10.72526 35027 ft 451 kts 105°
2026-05-07 13:38 51.39687 10.82233 35025 ft 450 kts 105°
2026-05-07 13:39 51.38129 10.91906 35023 ft 448 kts 105°
2026-05-07 13:39 51.36566 11.01577 35022 ft 447 kts 105°
2026-05-07 13:40 51.34999 11.11211 35040 ft 447 kts 105°
2026-05-07 13:40 51.33418 11.20879 35030 ft 449 kts 105°
2026-05-07 13:41 51.31831 11.30524 35018 ft 450 kts 105°
2026-05-07 13:41 51.30238 11.40148 35026 ft 450 kts 106°
2026-05-07 13:42 51.28628 11.49825 35031 ft 450 kts 106°
2026-05-07 13:42 51.27015 11.59467 35026 ft 450 kts 106°
2026-05-07 13:43 51.25392 11.69111 35032 ft 451 kts 106°
2026-05-07 13:43 51.23750 11.78814 35017 ft 451 kts 106°
2026-05-07 13:44 51.22105 11.88484 35031 ft 452 kts 106°
2026-05-07 13:44 51.20454 11.98132 35024 ft 453 kts 106°
2026-05-07 13:45 51.18783 12.07847 35015 ft 452 kts 106°
2026-05-07 13:45 51.17112 12.17502 35033 ft 451 kts 107°
2026-05-07 13:46 51.15439 12.27125 35010 ft 450 kts 107°
2026-05-07 13:46 51.13766 12.36688 35017 ft 449 kts 107°
2026-05-07 13:47 51.12084 12.46253 35019 ft 448 kts 107°
2026-05-07 13:47 51.10396 12.55804 35023 ft 448 kts 107°
2026-05-07 13:48 51.08694 12.65381 35022 ft 448 kts 107°
2026-05-07 13:48 51.06987 12.74935 35021 ft 448 kts 108°
2026-05-07 13:49 51.05275 12.84464 35013 ft 449 kts 108°
2026-05-07 13:49 51.03557 12.93976 35004 ft 449 kts 108°
2026-05-07 13:50 51.01828 13.03505 35005 ft 449 kts 108°
2026-05-07 13:50 51.00089 13.13037 35001 ft 449 kts 108°
2026-05-07 13:51 50.98335 13.22599 34998 ft 450 kts 108°
2026-05-07 13:51 50.96580 13.32121 34996 ft 451 kts 109°
2026-05-07 13:52 50.94815 13.41646 34990 ft 451 kts 109°
2026-05-07 13:52 50.93043 13.51160 34991 ft 451 kts 109°
2026-05-07 13:53 50.91250 13.60736 34989 ft 450 kts 109°
2026-05-07 13:53 50.89462 13.70243 34989 ft 449 kts 109°
2026-05-07 13:54 50.87668 13.79728 34981 ft 448 kts 109°
2026-05-07 13:54 50.85861 13.89245 34981 ft 447 kts 110°
2026-05-07 13:55 50.83709 13.98545 34971 ft 442 kts 122°
2026-05-07 13:55 50.80080 14.06224 34969 ft 434 kts 137°
2026-05-07 13:56 50.75792 14.12950 34966 ft 435 kts 139°
2026-05-07 13:56 50.71472 14.19673 34955 ft 436 kts 138°
2026-05-07 13:57 50.67181 14.26403 34961 ft 437 kts 138°
2026-05-07 13:57 50.62882 14.33169 34962 ft 437 kts 138°
2026-05-07 13:58 50.58585 14.39926 34955 ft 438 kts 138°
2026-05-07 13:58 50.54987 14.45571 34951 ft 438 kts 139°
2026-05-07 13:59 50.50681 14.52307 34949 ft 437 kts 139°
2026-05-07 13:59 50.46366 14.59039 34948 ft 435 kts 139°
2026-05-07 14:00 50.42088 14.65695 34946 ft 434 kts 139°
2026-05-07 14:00 50.37812 14.72328 34944 ft 432 kts 139°
2026-05-07 14:01 50.33546 14.78929 34949 ft 431 kts 139°
2026-05-07 14:01 50.29290 14.85497 34946 ft 430 kts 139°
2026-05-07 14:02 50.25012 14.92081 34952 ft 430 kts 140°
2026-05-07 14:02 50.20757 14.98612 34946 ft 429 kts 140°
2026-05-07 14:03 50.16478 15.05163 34945 ft 429 kts 140°
2026-05-07 14:03 50.12211 15.11677 34945 ft 429 kts 140°
2026-05-07 14:04 50.07973 15.18133 34940 ft 429 kts 140°
2026-05-07 14:04 50.03687 15.24643 34943 ft 428 kts 140°
2026-05-07 14:05 49.99409 15.31122 34937 ft 428 kts 140°
2026-05-07 14:05 49.95144 15.37566 34939 ft 428 kts 141°
2026-05-07 14:06 49.90873 15.44003 34934 ft 428 kts 141°
2026-05-07 14:06 49.86612 15.50408 34936 ft 428 kts 141°
2026-05-07 14:07 49.82337 15.56817 34928 ft 428 kts 141°
2026-05-07 14:07 49.78058 15.63216 34932 ft 428 kts 141°
2026-05-07 14:08 49.73777 15.69600 34930 ft 427 kts 141°
2026-05-07 14:08 49.69502 15.75960 34932 ft 427 kts 141°
2026-05-07 14:09 49.65225 15.82306 34930 ft 427 kts 141°
2026-05-07 14:09 49.60932 15.88661 34934 ft 426 kts 141°
2026-05-07 14:10 49.56642 15.94992 34932 ft 426 kts 142°
2026-05-07 14:10 49.52363 16.01293 34936 ft 426 kts 142°
2026-05-07 14:11 49.48071 16.07597 34942 ft 426 kts 142°
2026-05-07 14:11 49.43786 16.13874 34940 ft 426 kts 142°
2026-05-07 14:12 49.39493 16.20146 34948 ft 426 kts 142°
2026-05-07 14:12 49.35219 16.26378 34948 ft 425 kts 142°
2026-05-07 14:13 49.30933 16.32609 34947 ft 425 kts 142°
2026-05-07 14:13 49.26624 16.38858 34952 ft 424 kts 142°
2026-05-07 14:14 49.22363 16.45021 34934 ft 424 kts 142°
2026-05-07 14:14 49.18070 16.51215 34938 ft 424 kts 143°
2026-05-07 14:15 49.13771 16.57403 34947 ft 424 kts 143°
2026-05-07 14:15 49.09479 16.63565 34942 ft 424 kts 143°
2026-05-07 14:16 49.05167 16.69742 34937 ft 424 kts 143°
2026-05-07 14:16 49.00847 16.75913 34934 ft 424 kts 143°
2026-05-07 14:17 48.96558 16.82025 34916 ft 423 kts 143°
2026-05-07 14:17 48.92260 16.88129 34935 ft 422 kts 143°
2026-05-07 14:18 48.91776 16.88816 34937 ft 421 kts 143°
2026-05-07 14:20 48.90235 16.91013 34961 ft 420 kts 143°
2026-05-07 14:20 48.89301 16.92339 34980 ft 420 kts 143°
2026-05-07 14:21 48.87912 16.94309 34938 ft 421 kts 143°
2026-05-07 14:21 48.83644 17.00361 34939 ft 420 kts 143°
2026-05-07 14:22 48.79392 17.06376 34933 ft 419 kts 143°
2026-05-07 14:22 48.75566 17.13120 34941 ft 426 kts 134°
2026-05-07 14:23 48.72031 17.20303 34945 ft 426 kts 134°
2026-05-07 14:23 48.68462 17.27525 34941 ft 426 kts 134°
2026-05-07 14:24 48.64964 17.34538 34931 ft 411 kts 134°
2026-05-07 14:24 48.61542 17.41349 34948 ft 406 kts 135°
2026-05-07 14:24 48.59807 17.44781 34796 ft 408 kts 135°
2026-05-07 14:25 48.58100 17.48156 34535 ft 404 kts 135°
2026-05-07 14:25 48.56397 17.51527 34146 ft 401 kts 135°
2026-05-07 14:25 48.54717 17.54848 33775 ft 397 kts 136°
2026-05-07 14:25 48.53053 17.58134 33358 ft 394 kts 136°
2026-05-07 14:26 48.51386 17.61420 33004 ft 389 kts 136°
2026-05-07 14:26 48.49741 17.64661 32623 ft 386 kts 136°
2026-05-07 14:26 48.48116 17.67856 32259 ft 382 kts 136°
2026-05-07 14:26 48.46516 17.70998 31892 ft 379 kts 136°
2026-05-07 14:27 48.44917 17.74135 31534 ft 376 kts 136°
2026-05-07 14:27 48.43331 17.77241 31179 ft 373 kts 136°
2026-05-07 14:27 48.41750 17.80336 30828 ft 371 kts 136°
2026-05-07 14:27 48.40185 17.83394 30488 ft 368 kts 136°
2026-05-07 14:28 48.38620 17.86451 30132 ft 365 kts 136°
2026-05-07 14:28 48.37077 17.89460 29760 ft 362 kts 136°
2026-05-07 14:28 48.35542 17.92451 29381 ft 359 kts 136°
2026-05-07 14:28 48.34023 17.95410 29033 ft 355 kts 135°
2026-05-07 14:29 48.32525 17.98325 28706 ft 351 kts 136°
2026-05-07 14:29 48.31035 18.01218 28330 ft 349 kts 136°
2026-05-07 14:29 48.29554 18.04090 28007 ft 345 kts 136°
2026-05-07 14:29 48.28045 18.06867 27617 ft 341 kts 139°
2026-05-07 14:30 48.26490 18.09497 27251 ft 338 kts 140°
2026-05-07 14:30 48.24917 18.12088 26909 ft 335 kts 140°
2026-05-07 14:30 48.23351 18.14657 26573 ft 333 kts 140°
2026-05-07 14:30 48.21783 18.17238 26238 ft 330 kts 140°
2026-05-07 14:31 48.20261 18.19749 25914 ft 329 kts 139°
2026-05-07 14:31 48.18720 18.22296 25593 ft 328 kts 139°
2026-05-07 14:31 48.17188 18.24833 25269 ft 329 kts 139°
2026-05-07 14:31 48.15637 18.27398 24956 ft 336 kts 139°
2026-05-07 14:32 48.14048 18.30021 24623 ft 343 kts 139°
2026-05-07 14:32 48.12445 18.32675 24273 ft 343 kts 138°
2026-05-07 14:32 48.10848 18.35323 23929 ft 341 kts 138°
2026-05-07 14:32 48.09265 18.37945 23581 ft 339 kts 138°
2026-05-07 14:33 48.07683 18.40562 23186 ft 337 kts 138°
2026-05-07 14:33 48.06110 18.43159 22819 ft 335 kts 138°
2026-05-07 14:33 48.04558 18.45719 22468 ft 332 kts 138°
2026-05-07 14:33 48.03020 18.48253 22159 ft 329 kts 138°
2026-05-07 14:34 48.01486 18.50778 21805 ft 327 kts 138°
2026-05-07 14:34 47.99963 18.53281 21483 ft 325 kts 138°
2026-05-07 14:34 47.98449 18.55766 21146 ft 322 kts 138°
2026-05-07 14:34 47.96950 18.58231 20918 ft 319 kts 137°
2026-05-07 14:35 47.95460 18.60700 20874 ft 313 kts 137°
2026-05-07 14:35 47.94033 18.63076 20872 ft 302 kts 137°
2026-05-07 14:35 47.92666 18.65353 20862 ft 290 kts 138°
2026-05-07 14:35 47.91353 18.67535 20858 ft 277 kts 138°
2026-05-07 14:36 47.90088 18.69633 20866 ft 268 kts 138°
2026-05-07 14:36 47.88821 18.71722 20894 ft 273 kts 138°
2026-05-07 14:36 47.87516 18.73867 20912 ft 284 kts 138°
2026-05-07 14:36 47.86186 18.76060 20892 ft 288 kts 138°
2026-05-07 14:37 47.84846 18.78276 20868 ft 286 kts 138°
2026-05-07 14:37 47.82145 18.82720 19887 ft 305 kts 137°
2026-05-07 14:37 47.80687 18.85113 19232 ft 316 kts 137°
2026-05-07 14:38 47.79208 18.87547 18828 ft 318 kts 137°
2026-05-07 14:38 47.77737 18.89972 18552 ft 314 kts 136°
2026-05-07 14:38 47.76271 18.92386 18267 ft 312 kts 136°
2026-05-07 14:38 47.74820 18.94771 17909 ft 310 kts 136°
2026-05-07 14:39 47.73366 18.97156 17547 ft 309 kts 136°
2026-05-07 14:39 47.71926 18.99513 17195 ft 308 kts 136°
2026-05-07 14:39 47.70498 19.01849 16859 ft 306 kts 136°
2026-05-07 14:39 47.69069 19.04185 16532 ft 305 kts 136°
2026-05-07 14:40 47.67651 19.06499 16203 ft 304 kts 136°
2026-05-07 14:40 47.66225 19.08824 15880 ft 303 kts 136°
2026-05-07 14:40 47.64817 19.11118 15540 ft 302 kts 136°
2026-05-07 14:40 47.63871 19.12660 15326 ft 301 kts 136°
2026-05-07 14:41 47.62459 19.14960 15012 ft 300 kts 136°
2026-05-07 14:41 47.61049 19.17252 14720 ft 299 kts 136°
2026-05-07 14:41 47.59661 19.19507 14403 ft 298 kts 136°
2026-05-07 14:41 47.58256 19.21788 14114 ft 298 kts 136°
2026-05-07 14:42 47.56861 19.24051 13833 ft 297 kts 136°
2026-05-07 14:42 47.55464 19.26316 13531 ft 297 kts 136°
2026-05-07 14:42 47.54084 19.28551 13196 ft 296 kts 136°
2026-05-07 14:42 47.52686 19.30813 12879 ft 294 kts 136°
2026-05-07 14:43 47.51315 19.33029 12583 ft 292 kts 136°
2026-05-07 14:43 47.49953 19.35230 12330 ft 288 kts 136°
2026-05-07 14:43 47.48624 19.37379 12275 ft 277 kts 136°
2026-05-07 14:43 47.47336 19.39458 12171 ft 268 kts 136°
2026-05-07 14:44 47.46088 19.41469 12020 ft 261 kts 136°
2026-05-07 14:44 47.44867 19.43431 11752 ft 259 kts 136°
2026-05-07 14:44 47.43657 19.45376 11491 ft 258 kts 136°
2026-05-07 14:44 47.42440 19.47332 11200 ft 254 kts 136°
2026-05-07 14:45 47.41235 19.49266 10642 ft 259 kts 136°
2026-05-07 14:45 47.39994 19.51256 10056 ft 265 kts 136°
2026-05-07 14:45 47.38729 19.53283 9429 ft 271 kts 136°
2026-05-07 14:45 47.37447 19.55336 8800 ft 276 kts 136°
2026-05-07 14:46 47.36151 19.57411 8186 ft 278 kts 136°
2026-05-07 14:46 47.34826 19.59459 7582 ft 273 kts 136°
2026-05-07 14:46 47.33597 19.61552 6994 ft 268 kts 133°
2026-05-07 14:46 47.32415 19.63651 6395 ft 262 kts 133°
2026-05-07 14:47 47.31269 19.65710 5747 ft 258 kts 132°
2026-05-07 14:47 47.30127 19.67746 5112 ft 253 kts 132°
2026-05-07 14:47 47.29017 19.69714 4485 ft 250 kts 133°
2026-05-07 14:47 47.27965 19.71743 3835 ft 250 kts 120°
2026-05-07 14:48 47.27264 19.74079 3248 ft 245 kts 127°
2026-05-07 14:48 47.25994 19.75436 3048 ft 216 kts 170°
2026-05-07 14:48 47.24625 19.75159 3012 ft 198 kts 214°
2026-05-07 14:48 47.23595 19.73817 3007 ft 198 kts 222°
2026-05-07 14:49 47.22632 19.72364 2998 ft 199 kts 234°
2026-05-07 14:49 47.22055 19.70528 3008 ft 201 kts 255°
2026-05-07 14:49 47.21968 19.68469 3023 ft 204 kts 274°
2026-05-07 14:49 47.22407 19.66467 2997 ft 207 kts 297°
2026-05-07 14:50 47.23166 19.64690 2978 ft 203 kts 299°
2026-05-07 14:50 47.23929 19.62914 3021 ft 209 kts 299°
2026-05-07 14:50 47.24714 19.61082 3004 ft 213 kts 299°
2026-05-07 14:50 47.25493 19.59281 3000 ft 208 kts 299°
2026-05-07 14:51 47.26265 19.57489 3008 ft 207 kts 300°
2026-05-07 14:51 47.27041 19.55688 3009 ft 207 kts 299°
2026-05-07 14:51 47.27816 19.53877 3039 ft 211 kts 299°
2026-05-07 14:51 47.28610 19.52052 2972 ft 214 kts 302°
2026-05-07 14:52 47.29477 19.50324 2911 ft 201 kts 306°
2026-05-07 14:52 47.30362 19.48798 2925 ft 194 kts 308°
2026-05-07 14:52 47.31298 19.47251 2986 ft 206 kts 309°
2026-05-07 14:52 47.32245 19.45709 2985 ft 195 kts 309°
2026-05-07 14:53 47.33138 19.44262 2984 ft 189 kts 308°
2026-05-07 14:53 47.34027 19.42817 2870 ft 190 kts 308°
2026-05-07 14:53 47.34908 19.41382 2626 ft 186 kts 309°
2026-05-07 14:53 47.35736 19.40042 2409 ft 170 kts 308°
2026-05-07 14:54 47.36503 19.38800 2173 ft 159 kts 308°
2026-05-07 14:54 47.37228 19.37626 1961 ft 151 kts 308°
2026-05-07 14:54 47.37939 19.36465 1789 ft 153 kts 306°
2026-05-07 14:54 47.38648 19.35280 1541 ft 156 kts 307°
2026-05-07 14:55 47.39383 19.34104 1307 ft 154 kts 308°
2026-05-07 14:55 47.40098 19.32953 1132 ft 152 kts 308°
2026-05-07 14:55 47.40810 19.31788 995 ft 152 kts 306°
2026-05-07 14:55 47.41452 19.30720 743 ft 150 kts 309°
2026-05-07 14:56 47.42085 19.29732 552 ft 143 kts 309°
2026-05-07 14:56 47.42730 19.28680 447 ft 124 kts 308°
2026-05-07 14:56 47.43166 19.27980 461 ft 59 kts 313°
2026-05-07 14:56 47.43261 19.27819 462 ft 6 kts 305°
2026-05-07 14:57 47.43292 19.27748 464 ft 10 kts 302°
2026-05-07 14:57 47.43328 19.27637 465 ft 14 kts 294°
2026-05-07 14:57 47.43359 19.27470 462 ft 20 kts 278°
2026-05-07 14:57 47.43392 19.27242 457 ft 25 kts 285°
2026-05-07 14:58 47.43444 19.26979 457 ft 27 kts 302°
2026-05-07 14:58 47.43567 19.26775 457 ft 26 kts 313°
2026-05-07 14:58 47.43683 19.26587 457 ft 24 kts 312°
2026-05-07 14:58 47.43749 19.26433 457 ft 15 kts 263°
2026-05-07 14:59 47.43716 19.26371 457 ft 7 kts 222°
2026-05-07 14:59 47.43669 19.26356 454 ft 8 kts 156°
2026-05-07 14:59 47.43616 19.26430 457 ft 14 kts 132°
2026-05-07 14:59 47.43551 19.26535 457 ft 10 kts 133°
2026-05-07 15:00 47.43512 19.26569 457 ft 4 kts 194°
2026-05-07 15:00 47.43486 19.26543 454 ft 5 kts 220°
2026-05-07 15:00 47.43476 19.26529 456 ft 0 kts 222°